Location: Newark
(44.0160°N, 116.9215°W)
Time: 06:06:40
(UTC+00:00)

Envisat - Pass Details

Date: 28 November 2019
Orbit: 764 x 766 km, 98.1° (Epoch: 07 December)

Event Time Altitude Azimuth Distance (km) Brightness Sun altitude
Rises 13:46:22 0° 24° (NNE) 3,240 6.3 -12.8°
Reaches altitude 10° 13:49:02 10° 37° (NE) 2,309 5.7 -12.3°
Maximum altitude 13:53:19 27° 94° (E) 1,446 5.4 -11.6°
Drops below altitude 10° 13:57:34 10° 151° (SSE) 2,295 6.2 -10.9°
Sets 14:00:11 0° 164° (SSE) 3,216 6.8 -10.4°
